Tracking 32963 objects as of 21-Jan-2026
HD Live streaming from Space Station
objects crossing your sky now

SCOUT B DEB

Track SCOUT B DEB now!
10-day predictions


NORAD ID: 29168
Int'l Code: 1965-063S
Perigee: 1,167.3 km
Apogee: 1,734.8 km
Inclination: 69.3 °
Period: 114.7 minutes
Semi major axis: 7822 km
RCS: 0.0859 m2 (small)
Launch date: August 10, 1965
Source: United States (US)
Launch site: WALLOPS ISLAND (WLPIS)

Note: This is SATELLITE DEBRIS
Your satellite tracking list
Your tracking list is empty




NASA's NSSDC Master Catalog

Two Line Element Set (TLE):
1 29168U 65063S   26019.76870409  .00010781  00000-0  52149-1 0  9994
2 29168  69.3184 136.9516 0362702 250.2661 267.5805 12.54939079611608
Source of the keplerian elements: AFSPC